Location: Devore Heights
(34.2372°N, 117.4156°W)
Time: 02:33:01
(UTC+00:00)

SR - Pass Details

Date: 21 September 2024
Orbit: 578 x 855 km, 66.7° (Epoch: 02 October)

Event Time Altitude Azimuth Distance (km) Brightness Sun altitude
Rises 03:35:16 0° 351° (N) 2,980 ? -22.6°
Reaches altitude 10° 03:38:10 10° 10° (N) 2,118 ? -23.2°
Enters shadow 03:39:49 16° 29° (NNE) 1,790 ? -23.5°
Maximum altitude 03:41:31 18° 54° (NE) 1,680 - -23.9°
Drops below altitude 10° 03:45:00 10° 98° (E) 2,239 - -24.5°
Sets 03:48:10 0° 116° (ESE) 3,218 - -25.2°
